When you browse on this site, cookies collect data to enhance your experience and personalize the content and advertising you see.
Visit our Privacy Policy to learn more. By continuing to use the site, you agree to this use of cookies and data.
  • en Suisse
  • Liste des pays
  • À 7 jours
  • Température de l'eau
  • Carte météo
  • Widgets météo
  • user-avatar
    Se connecter

    Météo par heure à Yevlakh

    Ce jour, 25 Mai, Lundi

    Heure Température Précipitation Vent Pression Humidité
    00:00 +16°C° 0.3 mm 2 m/s 765 mmHg 74%
    01:00 +16°C° 0 mm 2 m/s 765 mmHg 74%
    02:00 +14°C° 0 mm 3 m/s 764 mmHg 75%
    03:00 +14°C° 0 mm 3 m/s 764 mmHg 79%
    04:00 +16°C° 0 mm 3 m/s 764 mmHg 77%
    05:00 +15°C° 0 mm 4 m/s 765 mmHg 75%
    06:00 +16°C° 0 mm 5 m/s 765 mmHg 73%
    07:00 +17°C° 0 mm 5 m/s 764 mmHg 67%
    08:00 +19°C° 0 mm 6 m/s 764 mmHg 61%
    09:00 +21°C° 0 mm 7 m/s 764 mmHg 54%
    10:00 +23°C° 0.1 mm 7 m/s 763 mmHg 50%
    11:00 +24°C° 0.1 mm 8 m/s 763 mmHg 45%
    12:00 +26°C° 0.1 mm 8 m/s 762 mmHg 41%
    13:00 +26°C° 0.1 mm 8 m/s 761 mmHg 41%
    14:00 +26°C° 0.1 mm 7 m/s 760 mmHg 41%
    15:00 +26°C° 0.1 mm 7 m/s 760 mmHg 40%
    16:00 +24°C° 0.1 mm 7 m/s 759 mmHg 43%
    17:00 +23°C° 0.1 mm 8 m/s 759 mmHg 45%
    18:00 +23°C° 0.1 mm 8 m/s 759 mmHg 47%
    19:00 +21°C° 0 mm 6 m/s 759 mmHg 53%
    20:00 +20°C° 0 mm 5 m/s 759 mmHg 58%
    21:00 +18°C° 0 mm 3 m/s 759 mmHg 64%
    22:00 +18°C° 0 mm 2 m/s 759 mmHg 66%
    23:00 +17°C° 0 mm 2 m/s 760 mmHg 68%

    Demain, 26 Mai, Mardi

    Heure Température Précipitation Vent Pression Humidité
    00:00 +18°C° 0 mm 1 m/s 760 mmHg 71%
    01:00 +17°C° 0 mm 3 m/s 760 mmHg 71%
    02:00 +16°C° 0 mm 5 m/s 760 mmHg 72%
    03:00 +16°C° 0 mm 7 m/s 760 mmHg 73%
    04:00 +17°C° 0 mm 8 m/s 760 mmHg 69%
    05:00 +18°C° 0 mm 9 m/s 761 mmHg 65%
    06:00 +18°C° 0 mm 11 m/s 761 mmHg 61%
    07:00 +21°C° 0 mm 11 m/s 761 mmHg 54%
    08:00 +23°C° 0 mm 11 m/s 761 mmHg 47%
    09:00 +26°C° 0 mm 11 m/s 761 mmHg 40%
    10:00 +27°C° 0 mm 10 m/s 761 mmHg 36%
    11:00 +29°C° 0 mm 10 m/s 761 mmHg 32%
    12:00 +32°C° 0 mm 9 m/s 761 mmHg 29%
    13:00 +33°C° 0 mm 8 m/s 761 mmHg 27%
    14:00 +33°C° 0 mm 7 m/s 761 mmHg 25%
    15:00 +34°C° 0 mm 5 m/s 761 mmHg 23%
    16:00 +33°C° 0 mm 4 m/s 761 mmHg 25%
    17:00 +33°C° 0 mm 3 m/s 762 mmHg 26%
    18:00 +31°C° 0 mm 2 m/s 762 mmHg 28%
    19:00 +28°C° 0 mm 3 m/s 763 mmHg 38%
    20:00 +25°C° 0 mm 4 m/s 764 mmHg 47%
    21:00 +21°C° 0 mm 6 m/s 764 mmHg 57%
    22:00 +21°C° 0 mm 5 m/s 764 mmHg 59%
    23:00 +20°C° 0 mm 4 m/s 764 mmHg 61%

    Après-demain, 27 Mai, Mercredi

    Heure Température Précipitation Vent Pression Humidité
    00:00 +19°C° 0 mm 4 m/s 765 mmHg 64%
    01:00 +19°C° 0 mm 3 m/s 764 mmHg 66%
    02:00 +18°C° 0 mm 2 m/s 764 mmHg 68%
    03:00 +18°C° 0 mm 2 m/s 764 mmHg 70%
    04:00 +18°C° 0 mm 2 m/s 764 mmHg 67%
    05:00 +20°C° 0 mm 1 m/s 765 mmHg 65%
    06:00 +21°C° 0 mm 1 m/s 765 mmHg 63%
    07:00 +21°C° 0 mm 2 m/s 765 mmHg 57%
    08:00 +24°C° 0 mm 2 m/s 765 mmHg 51%
    09:00 +26°C° 0 mm 2 m/s 765 mmHg 46%
    10:00 +27°C° 0 mm 2 m/s 764 mmHg 42%
    11:00 +28°C° 0 mm 2 m/s 764 mmHg 38%
    12:00 +30°C° 0 mm 3 m/s 763 mmHg 34%
    13:00 +30°C° 0 mm 3 m/s 763 mmHg 33%
    14:00 +31°C° 0 mm 2 m/s 762 mmHg 32%
    15:00 +32°C° 0 mm 2 m/s 762 mmHg 30%
    16:00 +31°C° 0 mm 2 m/s 762 mmHg 31%
    17:00 +31°C° 0 mm 2 m/s 762 mmHg 32%
    18:00 +31°C° 0 mm 2 m/s 762 mmHg 33%
    19:00 +29°C° 0 mm 1 m/s 762 mmHg 38%
    20:00 +27°C° 0 mm 1 m/s 762 mmHg 43%
    21:00 +25°C° 0 mm 1 m/s 763 mmHg 48%
    22:00 +24°C° 0 mm 1 m/s 762 mmHg 51%
    23:00 +23°C° 0 mm 2 m/s 762 mmHg 54%

    28 Mai, Jeudi

    Heure Température Précipitation Vent Pression Humidité
    00:00 +21°C° 0 mm 3 m/s 762 mmHg 57%
    01:00 +21°C° 0 mm 2 m/s 761 mmHg 59%
    02:00 +21°C° 0 mm 1 m/s 761 mmHg 60%
    03:00 +18°C° 0 mm 0 m/s 761 mmHg 62%
    04:00 +19°C° 0 mm 0 m/s 761 mmHg 60%
    05:00 +20°C° 0 mm 0 m/s 761 mmHg 57%
    06:00 +21°C° 0 mm 0 m/s 761 mmHg 55%
    07:00 +22°C° 0 mm 0 m/s 760 mmHg 51%
    08:00 +24°C° 0 mm 0 m/s 760 mmHg 47%
    09:00 +28°C° 0 mm 1 m/s 760 mmHg 43%
    10:00 +29°C° 0 mm 1 m/s 759 mmHg 39%
    11:00 +31°C° 0 mm 1 m/s 759 mmHg 36%
    12:00 +32°C° 0 mm 2 m/s 758 mmHg 33%
    13:00 +34°C° 0 mm 2 m/s 758 mmHg 31%
    14:00 +35°C° 0 mm 2 m/s 757 mmHg 30%
    15:00 +36°C° 0 mm 2 m/s 757 mmHg 28%
    16:00 +35°C° 0 mm 2 m/s 757 mmHg 30%
    17:00 +35°C° 0 mm 3 m/s 757 mmHg 32%
    18:00 +34°C° 0 mm 3 m/s 757 mmHg 34%
    19:00 +31°C° 0 mm 3 m/s 757 mmHg 39%
    20:00 +30°C° 0 mm 3 m/s 758 mmHg 45%
    21:00 +28°C° 0 mm 3 m/s 758 mmHg 50%
    22:00 +27°C° 0 mm 3 m/s 758 mmHg 51%
    23:00 +25°C° 0 mm 3 m/s 757 mmHg 52%

    29 Mai, Vendredi

    Heure Température Précipitation Vent Pression Humidité
    00:00 +24°C° 0 mm 3 m/s 757 mmHg 53%
    01:00 +24°C° 0 mm 2 m/s 757 mmHg 55%
    02:00 +23°C° 0 mm 2 m/s 757 mmHg 57%
    03:00 +22°C° 0 mm 1 m/s 756 mmHg 59%
    04:00 +23°C° 0 mm 1 m/s 756 mmHg 58%
    05:00 +23°C° 0 mm 1 m/s 756 mmHg 57%
    06:00 +24°C° 0 mm 1 m/s 756 mmHg 56%
    07:00 +26°C° 0 mm 1 m/s 756 mmHg 50%
    08:00 +27°C° 0 mm 1 m/s 755 mmHg 44%
    09:00 +29°C° 0 mm 2 m/s 755 mmHg 39%
    10:00 +31°C° 0 mm 2 m/s 754 mmHg 35%
    11:00 +34°C° 0 mm 3 m/s 754 mmHg 32%
    12:00 +36°C° 0 mm 3 m/s 753 mmHg 28%
    13:00 +37°C° 0 mm 4 m/s 753 mmHg 26%
    14:00 +38°C° 0 mm 4 m/s 752 mmHg 25%
    15:00 +40°C° 0 mm 4 m/s 752 mmHg 23%
    16:00 +39°C° 0 mm 5 m/s 752 mmHg 27%
    17:00 +38°C° 0 mm 6 m/s 751 mmHg 31%
    18:00 +35°C° 0 mm 6 m/s 751 mmHg 36%
    19:00 +33°C° 0 mm 6 m/s 752 mmHg 40%
    20:00 +32°C° 0 mm 5 m/s 753 mmHg 45%
    21:00 +29°C° 0 mm 5 m/s 753 mmHg 50%
    22:00 +28°C° 0 mm 4 m/s 753 mmHg 54%
    23:00 +27°C° 0 mm 4 m/s 753 mmHg 57%

    30 Mai, Samedi

    Heure Température Précipitation Vent Pression Humidité
    00:00 +26°C° 0 mm 3 m/s 753 mmHg 61%
    01:00 +24°C° 0 mm 6 m/s 754 mmHg 59%
    02:00 +24°C° 0 mm 9 m/s 754 mmHg 58%
    03:00 +23°C° 0 mm 11 m/s 754 mmHg 56%
    04:00 +23°C° 0 mm 12 m/s 754 mmHg 55%
    05:00 +24°C° 0 mm 12 m/s 755 mmHg 53%
    06:00 +24°C° 0 mm 13 m/s 755 mmHg 52%
    07:00 +26°C° 0 mm 12 m/s 755 mmHg 46%
    08:00 +28°C° 0 mm 12 m/s 756 mmHg 40%
    09:00 +31°C° 0 mm 12 m/s 756 mmHg 34%
    10:00 +32°C° 0 mm 11 m/s 756 mmHg 30%
    11:00 +34°C° 0 mm 11 m/s 756 mmHg 27%
    12:00 +36°C° 0 mm 10 m/s 756 mmHg 23%
    13:00 +37°C° 0 mm 10 m/s 756 mmHg 22%
    14:00 +37°C° 0 mm 9 m/s 756 mmHg 20%
    15:00 +38°C° 0 mm 9 m/s 756 mmHg 19%
    16:00 +35°C° 0 mm 9 m/s 757 mmHg 22%
    17:00 +34°C° 0 mm 9 m/s 757 mmHg 24%
    18:00 +33°C° 0 mm 10 m/s 757 mmHg 27%
    19:00 +31°C° 0 mm 9 m/s 758 mmHg 31%
    20:00 +28°C° 0 mm 8 m/s 759 mmHg 35%
    21:00 +26°C° 0 mm 7 m/s 760 mmHg 39%
    22:00 +24°C° 0 mm 6 m/s 760 mmHg 44%
    23:00 +23°C° 0 mm 5 m/s 760 mmHg 48%
    Voir plus